Regional Weather Roundup
Issued by NWS Upton, NY

Current Version | Previous Version | Graphics & Text | Print | Product List | Glossary Off
Versions: 1 2 3 4 5 6 7 8 9 10 11 12 13 14 15 16 17 18 19 20 21 22 23 24 25 26

000
ASUS41 KOKX 180605
RWROKX

REGIONAL WEATHER ROUNDUP
NATIONAL WEATHER SERVICE NEW YORK NY
200 AM EDT FRI APR 18 2014

NOTE: "FAIR" INDICATES FEW OR NO CLOUDS BELOW 12,000 FEET WITH NO
SIGNIFICANT WEATHER AND/OR OBSTRUCTIONS TO VISIBILITY.

NYZ071-072-176-178-NJZ106-104-180700-
NEW YORK CITY METRO AREA


CITY           SKY/WX    TMP DP  RH WIND       PRES   REMARKS
CENTRAL PARK   FAIR      38  27  64 VRB6      30.63S WCI  33
LAGUARDIA APRT FAIR      37  26  64 E5        30.61S WCI  33
KENNEDY INTL   MOCLDY    38  28  67 NE5       30.62S WCI  34
NEWARK/LIBERTY MOCLDY    39  28  64 E5        30.62R
TETERBORO      FAIR      38  28  67 CALM      30.61S
$$

NYZ177-179-078>081-180700-
LONG ISLAND NEW YORK

CITY           SKY/WX    TMP DP  RH WIND       PRES   REMARKS
FARMINGDALE    FAIR      34  27  75 NE3       30.60S
ISLIP          FAIR      34  26  72 N3        30.58S
SHIRLEY        FAIR      32  26  78 CALM      30.60S
WESTHAMPTON    FAIR      35  27  72 NE8       30.60S WCI  29
MONTAUK POINT    N/A     38  30  73 NE9       30.58F WCI  31
$$

NYZ052-065-067-180700-
HUDSON VALLEY

CITY           SKY/WX    TMP DP  RH WIND       PRES   REMARKS
WHITE PLAINS   FAIR      35  25  66 CALM      30.58F
NEWBURGH       CLEAR     34  28  80 CALM      30.61S
MONTGOMERY     FAIR      30  25  81 CALM      30.59S
POUGHKEEPSIE   FAIR      32  27  81 CALM      30.61R
ALBANY         FAIR      36  20  52 SE6       30.60S WCI  31
$$

NJZ001-105-106-008-010-013-015-019>022-104-180700-
NEW JERSEY

CITY           SKY/WX    TMP DP  RH WIND       PRES   REMARKS
NEWARK/LIBERTY MOCLDY    39  28  64 E5        30.62R
TETERBORO      FAIR      38  28  67 CALM      30.61S
CALDWELL       FAIR      34  30  85 CALM      30.62R
MORRISTOWN     FAIR      34  30  86 CALM      30.62R
SOMERVILLE     FAIR      32  29  88 CALM      30.60R
LINDEN         MOCLDY    40  31  68 CALM      30.64R
SUSSEX         CLOUDY    36  30  79 CALM      30.60R
ANDOVER          N/A     36  31  82 CALM      30.60R
TRENTON        CLOUDY    37  30  75 E3        30.59S
MILLVILLE      CLOUDY    39  31  72 NE7       30.57F WCI  34
ATLANTIC CITY  CLOUDY    39  32  76 NE7       30.57F WCI  34
WRIGHTSTOWN    CLOUDY    38  31  77 E5        30.57F WCI  34
TOMS RIVER     CLOUDY    39  28  65 CALM      30.59F
BELMAR         CLOUDY    39  27  60 E8        30.59S WCI  34
$$

PAZ047>061-062-071-180700-
EASTERN PENNSYLVANIA

CITY           SKY/WX    TMP DP  RH WIND       PRES   REMARKS
PHILADELPHIA   CLOUDY    40  27  59 E12       30.60F WCI  33
ALLENTOWN      CLOUDY    37  30  75 SW5       30.60F WCI  33
SCRANTON       FAIR      32  25  75 S6        30.55S WCI  26
$$

CTZ002-004>006-009-010-012-RIZ004-006-007-MAZ004-011-015-180700-
SOUTHERN NEW ENGLAND
 IN CT

CITY           SKY/WX    TMP DP  RH WIND       PRES   REMARKS
BRADLEY INTL   FAIR      30  23  75 N6        30.61F WCI  24
HARTFORD       FAIR      32  24  72 N7        30.62F WCI  26
DANBURY        FAIR      29  28  96 CALM      30.61S
WTRBRY/OXFORD  FAIR      30  21  69 NE6       30.60F WCI  24
BRIDGEPORT     FAIR      37  25  61 NE12      30.61S WCI  29
MERIDEN        FAIR      33  24  69 N5        30.62S WCI  29
NEW HAVEN      FAIR      32  23  69 N6        30.61S WCI  26
CHESTER        FAIR      32  27  80 NE6       30.59S WCI  26
GROTON         FAIR      33  26  75 N8        30.59F WCI  26
WILLIMANTIC    FAIR      31  25  78 N6        30.61F WCI  25

 IN RI

CITY           SKY/WX    TMP DP  RH WIND       PRES   REMARKS
PROVIDENCE     FAIR      32  25  75 N8        30.60F WCI  25
BLOCK ISLAND   FAIR      37  27  65 E15G21    30.56S WCI  28
WESTERLY       FAIR      32  26  78 N6        30.59F WCI  26

 IN MA

CITY           SKY/WX    TMP DP  RH WIND       PRES   REMARKS
BOSTON         FAIR      36  27  69 E10       30.63F WCI  28
WORCESTER      FAIR      28  23  81 NE8       30.58F WCI  20
WESTFIELD      FAIR      30  25  81 CALM      30.62F
PROVINCETOWN   FAIR      36  28  75 MISG      30.60F
NANTUCKET      FAIR      36  27  69 NE13      30.55F WCI  27
$$

ANZ330-335-338-340-345-350-353-355-180700-
COASTAL MARINE OBSERVATIONS


STATION/POSITION TIME  SKY/WX   TEMP    WIND        PRES    VSBY  WAVE
                                AIR SEA DIR/SP/G                  HT/PER
                 (UTC)          (F)     (DEG/KT/KT) (MB)    (MI)  (FT/S)
NY HARB ENTRANCE 0600            40 42   10/ 14/ 16 1036.0
4S FIRE IS       0500               44                N/A           7/ 7
23SW MTP         0600            39 42   60/ 17/ 21 1034.3          7/ 8
HUDSON CANYON    0500            40 44   60/ 19/ 21 1033.3         10/ 8
EXECUTION ROCKS  0600            39 42   80/ 10/ 14   N/A
WESTERN LI SOUND 0600            39      90/ 14/ 16   N/A           3/ 4
CENTRAL LI SOUND 0500            36 42   70/ 14/ 17   N/A           3/ 4
EASTERN LI SOUND NOT AVBL
ROBBINS REEF     0600            39      70/  7/  8   N/A
$$


>>>>>>>>>>>>>>>>>>>>>>>>>>>> KEY <<<<<<<<<<<<<<<<<<<<<<<<<<<
>                                                          <
>     SKY/WX - SKY CONDITION/PRESENT WEATHER               <
>     TMP    - TEMPERATURE IN FAHRENHEIT                   <
>     DP     - DEWPOINT IN FAHRENHEIT                      <
>     RH     - RELATIVE HUMIDITY IN PERCENT                <
>     WIND   - DIRECTION AND SPEED IN MPH                  <
>     PRES   - MEAN SEA LEVEL PRESSURE IN INCHES OF HG     <
>     WCI    - WIND CHILL INDEX                            <
>     VSB    - VISIBILITY IN MILES                         <
>     HX     - HEAT INDEX                                  <
>     TC     - TEMPERATURE IN CELSIUS                      <
>     VRB    - VARIABLE WIND DIRECTION                     <
>                                                          <
>>>>>>>>>>>>>>>>>>>>>>>>>>>> KEY <<<<<<<<<<<<<<<<<<<<<<<<<<<





USA.gov is the U.S. government's official web portal to all federal, state and local government web resources and services.